KRH645P EGSS-EGLL

Flight info

Callsign KRH645P
Flight time N/A
Altitude 8000
Route CLN DCT LAM
Aircraft A332/H-SDE3GHIJ2J3J5M1RVWXY/LB2D1

Departure

Time 2026-05-05 17:03
Airport London Stansted Airport (EGSS)

Arrival

Time N/A
Airport London Heathrow Airport (EGLL)
Time Latitude Longitude Altitude Speed Heading
2026-05-05 16:54 51.88464 0.22730 340 ft 0 kts 293°
2026-05-05 16:58 51.88458 0.22755 334 ft 4 kts 293°
2026-05-05 16:59 51.88444 0.22805 335 ft 7 kts 293°
2026-05-05 16:59 51.88424 0.22881 354 ft 7 kts 293°
2026-05-05 16:59 51.88412 0.22926 357 ft 4 kts 271°
2026-05-05 16:59 51.88425 0.22971 356 ft 1 kts 216°
2026-05-05 17:00 51.88423 0.22968 354 ft 1 kts 216°
2026-05-05 17:00 51.88407 0.22947 361 ft 4 kts 221°
2026-05-05 17:00 51.88353 0.22867 353 ft 24 kts 223°
2026-05-05 17:00 51.88226 0.22674 355 ft 25 kts 223°
2026-05-05 17:01 51.88095 0.22479 355 ft 26 kts 223°
2026-05-05 17:01 51.87958 0.22275 355 ft 28 kts 222°
2026-05-05 17:01 51.87808 0.22051 353 ft 32 kts 223°
2026-05-05 17:01 51.87694 0.21913 338 ft 15 kts 189°
2026-05-05 17:02 51.87589 0.21947 335 ft 16 kts 162°
2026-05-05 17:02 51.87562 0.22067 337 ft 11 kts 57°
2026-05-05 17:02 51.87617 0.22155 353 ft 17 kts 43°
2026-05-05 17:02 51.87876 0.22543 352 ft 89 kts 43°
2026-05-05 17:03 51.88507 0.23498 360 ft 157 kts 45°
2026-05-05 17:03 51.89421 0.24817 798 ft 190 kts 43°
2026-05-05 17:03 51.90468 0.26342 1459 ft 219 kts 44°
2026-05-05 17:03 51.91392 0.28508 1992 ft 248 kts 69°
2026-05-05 17:04 51.91566 0.31301 3023 ft 253 kts 89°
2026-05-05 17:04 51.91378 0.34160 4098 ft 259 kts 102°
2026-05-05 17:04 51.90752 0.36930 5171 ft 265 kts 112°
2026-05-05 17:04 51.89928 0.39644 6249 ft 271 kts 116°
2026-05-05 17:05 51.89027 0.42361 7153 ft 277 kts 117°
2026-05-05 17:05 51.88084 0.45115 7725 ft 283 kts 118°
2026-05-05 17:05 51.87112 0.47903 7927 ft 284 kts 118°
2026-05-05 17:05 51.86133 0.50693 7971 ft 286 kts 118°
2026-05-05 17:06 51.85145 0.53494 7953 ft 287 kts 118°
2026-05-05 17:06 51.84156 0.56297 7952 ft 288 kts 118°
2026-05-05 17:06 51.83158 0.59106 7949 ft 288 kts 120°
2026-05-05 17:06 51.81911 0.61647 7948 ft 291 kts 136°
2026-05-05 17:07 51.80211 0.63382 7933 ft 290 kts 160°
2026-05-05 17:07 51.78231 0.63758 7934 ft 290 kts 188°
2026-05-05 17:07 51.76378 0.62573 7933 ft 288 kts 218°
2026-05-05 17:07 51.75114 0.60150 7772 ft 283 kts 244°
2026-05-05 17:08 51.74347 0.57236 7350 ft 281 kts 252°
2026-05-05 17:08 51.73701 0.54323 7028 ft 278 kts 253°
2026-05-05 17:08 51.73045 0.51354 6935 ft 277 kts 253°
2026-05-05 17:08 51.72514 0.48382 6932 ft 275 kts 267°
2026-05-05 17:09 51.72703 0.45368 6949 ft 270 kts 287°
2026-05-05 17:09 51.73258 0.42525 6953 ft 270 kts 290°
2026-05-05 17:09 51.73877 0.39666 6956 ft 270 kts 291°
2026-05-05 17:09 51.74502 0.36807 6858 ft 270 kts 291°
2026-05-05 17:10 51.75040 0.33897 6453 ft 272 kts 279°
2026-05-05 17:10 51.74880 0.30879 6076 ft 273 kts 257°
2026-05-05 17:10 51.74271 0.27980 5679 ft 272 kts 251°
2026-05-05 17:10 51.73598 0.25137 5257 ft 271 kts 251°
2026-05-05 17:11 51.72918 0.22301 4831 ft 271 kts 251°
2026-05-05 17:11 51.72237 0.19469 4410 ft 270 kts 251°
2026-05-05 17:11 51.71562 0.16657 3989 ft 267 kts 251°
2026-05-05 17:11 51.70746 0.14008 3369 ft 265 kts 235°
2026-05-05 17:12 51.69532 0.11761 2751 ft 265 kts 229°
2026-05-05 17:12 51.68510 0.09302 2502 ft 265 kts 247°
2026-05-05 17:12 51.68099 0.06446 2463 ft 264 kts 271°
2026-05-05 17:12 51.68508 0.03627 2464 ft 258 kts 301°
2026-05-05 17:13 51.69694 0.01537 2465 ft 252 kts 331°
2026-05-05 17:13 51.71275 0.00809 2461 ft 226 kts
2026-05-05 17:13 51.72730 0.01200 2491 ft 199 kts 19°
2026-05-05 17:13 51.73908 0.02043 2528 ft 175 kts 28°
2026-05-05 17:14 51.74851 0.03121 2490 ft 157 kts 39°
2026-05-05 17:14 51.75618 0.04231 2488 ft 140 kts 43°
2026-05-05 17:14 51.76299 0.05255 2486 ft 129 kts 43°
2026-05-05 17:14 51.76932 0.06200 2501 ft 121 kts 42°
2026-05-05 17:15 51.77552 0.07115 2491 ft 120 kts 42°
2026-05-05 17:15 51.78170 0.08027 2489 ft 120 kts 41°
2026-05-05 17:15 51.78786 0.08940 2489 ft 120 kts 42°
2026-05-05 17:15 51.79401 0.09856 2487 ft 120 kts 43°
2026-05-05 17:16 51.79806 0.10462 2499 ft 120 kts 42°
2026-05-05 17:16 51.80619 0.11680 2326 ft 119 kts 43°
2026-05-05 17:16 51.81229 0.12594 2142 ft 120 kts 41°
2026-05-05 17:16 51.81841 0.13508 1985 ft 120 kts 41°
2026-05-05 17:17 51.82253 0.14126 1869 ft 120 kts 42°
2026-05-05 17:17 51.82863 0.15039 1732 ft 119 kts 42°
2026-05-05 17:17 51.83471 0.15949 1527 ft 118 kts 42°
2026-05-05 17:17 51.84076 0.16855 1393 ft 119 kts 41°
2026-05-05 17:18 51.84679 0.17758 1208 ft 118 kts 43°
2026-05-05 17:18 51.85278 0.18656 1052 ft 120 kts 42°
2026-05-05 17:18 51.85886 0.19567 882 ft 119 kts 44°
2026-05-05 17:18 51.86494 0.20478 723 ft 120 kts 44°
2026-05-05 17:19 51.87104 0.21386 545 ft 119 kts 45°
2026-05-05 17:19 51.87718 0.22306 374 ft 120 kts 45°
2026-05-05 17:19 51.88285 0.23155 354 ft 94 kts 43°
2026-05-05 17:19 51.88619 0.23655 352 ft 36 kts 43°
2026-05-05 17:20 51.88730 0.23719 349 ft 16 kts 337°
2026-05-05 17:20 51.88753 0.23694 336 ft 0 kts 319°